星链-11092 [DTC] (STARLINK-11092 [DTC] )

导读 | 星芒AI

STARLINK-11092 [DTC] 是SpaceX星链(Starlink)卫星互联网项目中的一颗低轨通信卫星,属于第5批发射的星链卫星群。该卫星于2020年11月25日随猎鹰9号火箭发射升空,部署在约550公里高的轨道上,旨在为全球提供高速互联网服务。作为星链计划的一部分,STARLINK-11092 采用先进推进系统和激光通信技术,支持卫星间高速数据传输,提升网络覆盖与稳定性。该卫星目前由SpaceX运营,是构建全球宽带网络基础设施的重要节点。

基本信息
目录编号:
59710
目录名称:
STARLINK-11092
国际标识:
2024-088C
轨道中心:
EARTH
卫星名称:
星链-11092 [DTC]
卫星全名:
星链-11092 [DTC] (STARLINK-11092 [DTC] )
卫星状态:
在轨 (已飞行582 天)
发射日期:
2024-05-10 UTC
国别 :
美国 (US)
星等 :
--
轨道信息
数据来源 国际轨道数据
星历时间: 2025-12-12T21:22:03+0800
22小时前
查看轨道信息
半长轴: 6737.938km
偏心率: 0.0001058
轨道倾角: 53.160°
近地点辐角 95.173°
升交点赤经 36.056°
平近点角 264.941°
近地点: 359.09km
远地点: 360.516km
周期: 91.738分钟
每日圈数: 15.696843
详细信息
固有亮度:
5
最大亮度:
0.6
卫星平台:
Starlink v2.0 mini
覆盖范围:
全球
运营商:
太空探索技术公司
运营商所在国:
美国
制造商(研发单位):
太空探索技术公司
制造商所在国:
美国
使用方式:
暂无
卫星简介
星链(Starlink)计划是由太空探索技术公司(SpaceX)提出的一个巨型低轨卫星互联网星座项目,计划在2019年至2024年间在太空搭建由约1.2万颗卫星组成的“星链”网络,其中1584颗将部署在地球上空550千米处的近地轨道,并从2020年开始工作。该卫星仍在工作。
2D轨道图
3D轨道图
轨道高度分析图
轨道倾角分析图
轨道综合分析图
查看轨道综合分析图